Showing default

FLOCK 4BE 23, 60490

Orbit data source: Space-Track

FLOCK 4BE 23, 60490 is a payload satellite owned by Planet (US) in SSO that was launched on Fri, 16 Aug 2024 UTC via an FALCON 9 launch vehicle from the Air Force Western Test Range (AFWTR). Payload-class satellites include a variety of spacecraft equipped with specific instruments for various scientific and technological missions. These include communications satellites like Starlink; space stations such as the ISS; scientific satellites like the Hubble; Earth observation satellites from companies like Planet Labs, Umbra, and HawkEye 360; GPS; miniature CubeSats for education and research; and military/defense satellites.

Loading next visibility...
Identifier
60490, 2024-149Y
Orbit
SSO
Country
Flag of USUS
Related business
Manufacturer
Planet
Mission
Operational Commercial Imaging
Bus & Motor
CUBESAT 3U, Unknown motor
Mass
5.7 kg wet, 5.7 kg dry
Launch date (UTC)
2024-08-16 (1 year ago)
Launch vehicle
FALCON 9
Launch site
Air Force Western Test Range (AFWTR)
Object type
Payload
Rocket body
Debris
Shape & HBR
Box + 2 Pan, 1.0 m
Radar Cross Section
0.072 m², Medium (>0.1 m² and < 1m²)

Expand to show TLE details & history
Last TLE update: 13 hours ago

TLE from 13 hours ago
0 FLOCK 4BE 23
1 60490U 24149Y   26034.47742939  .00014971  00000-0  45947-3 0  9993
2 60490  97.3890 116.5686 0004033  48.4226 311.7362 15.33831342 81674
Epoch: 2026-02-03T11:27Z
TLE epoch observation values (Epoch: 2026-02-03T11:27:29.899Z)
Latitude
0.00001°
Longitude
171.03622°
Altitude
465.667 km
Speed
7.635 km/s
True Right ascension
07h 46m 16s
True Declination
0° 00' 00"
Sunlit
Object was in full shadow at epoch
Visualization orbit readout
Latitude
Unknown
Longitude
Unknown
Altitude
Unknown
Speed
Unknown
Apparent Right ascension
Unknown
Apparent Declination
Unknown
Sunlit
N/A
Visualization observer readout
Local Sidereal Time
02:51:34
Azimuth
Unknown
Elevation
Unknown
Doppler factor
Unknown
Orbital elements
Apogee altitude
464.099 km
Perigee altitude
458.582 km
Semi-major axis
6,839.478 km
Eccentricity
0.0004
Inclination
97.389°
RAAN
116.5686°
Arg. of periapsis
48.4226°
True anomaly
311.7017°
Mean anomaly
311.7362°
Eccentric anomaly
311.71895°
Mean motion
3.83715 °/min
Orbital period
93.82 mins
BSTAR
0.00045947
Loading maneuver chart data...
Computing Atmospheric mass density...
Loading historical data...
Loading historical data...
Loading historical data...
Loading historical data...
Loading historical data...
Loading historical data...
Loading historical data...

Documentation

Showing up to 5 results
|